Flag for Turkey Weather past 2 weeks in Istanbul, Turkey

Now
75 °F

Passing clouds.


Feels Like: 78 °F
Forecast: 73 / 89 °F
Wind: 12 mph from East

Location: Istanbul Ataturk Airport

Current Time: Sep 1, 2015 at 1:00:08 AM

Latest Report: Sep 1, 2015 at 12:20 AM


Visibility: N/A

Pressure: 30.04 "Hg

Humidity: 57%

Dew point: 59 °F

Location of IstanbulLocation

Historic Weather in Istanbul — Graph

°F

Istanbul temperature yesterday

Maximum temperature yesterday: 84 °F (at 11:50 AM)
Minimum temperature yesterday: 72 °F (at 5:50 AM)
Average temperature yesterday: 79 °F

Past Weeks' High & Low Weather Summary

 TemperatureHumidityPressure
High91 °F (Aug 17, 5:50 PM)83% (Aug 22, 10:50 PM)30.15 "Hg (Aug 22, 10:50 PM)
Low68 °F (Aug 24, 3:50 AM)19% (Aug 29, 4:20 PM)29.71 "Hg (Aug 17, 6:20 PM)
Average80 °F57%29.98 "Hg
* Reported Aug 16 11:20 PM — Aug 31 11:20 PM, Istanbul, Weather by CustomWeather, © 2015

Note: Actual official high and low records may vary slightly from our data, if they occured in-between our weather recording intervals... More about our weather records

Advertising

Istanbul weather history for previous 24 hours

 ConditionsComfort  
Time TempWeatherWind HumidityBarometerVisibility
11:20 PM
Mon, Aug 31
75 °FClear.14 mph61%30.04 "Hg10 mi
10:50 PM77 °FPassing clouds.14 mph57%30.04 "HgN/A
10:20 PM77 °FPassing clouds.13 mph61%30.07 "HgN/A
9:50 PM77 °FClear.17 mph65%30.07 "Hg10 mi
9:20 PM79 °FPassing clouds.14 mph65%30.07 "HgN/A
8:50 PM79 °FPassing clouds.16 mph65%30.07 "HgN/A
8:20 PM81 °FPassing clouds.14 mph58%30.04 "HgN/A
7:50 PM81 °FPassing clouds.13 mph62%30.04 "HgN/A
7:20 PM79 °FPassing clouds.16 mph61%30.04 "HgN/A
6:50 PM81 °FPassing clouds.14 mph62%30.07 "HgN/A
6:20 PM81 °FPassing clouds.18 mph58%30.07 "HgN/A
5:50 PM82 °FPassing clouds.18 mph51%30.07 "HgN/A
5:20 PM82 °FPassing clouds.18 mph55%30.07 "HgN/A
4:50 PM82 °FPassing clouds.18 mph55%30.07 "HgN/A
4:20 PM84 °FPassing clouds.16 mph48%30.07 "HgN/A
3:50 PM84 °FPassing clouds.16 mph45%30.07 "HgN/A
3:20 PM84 °FPassing clouds.14 mph43%30.09 "HgN/A
2:50 PM84 °FPassing clouds.13 mph45%30.09 "HgN/A
2:20 PM84 °FPassing clouds.13 mph45%30.09 "HgN/A
1:50 PM84 °FPassing clouds.12 mph48%30.09 "HgN/A
1:20 PM84 °FPassing clouds.12 mph45%30.09 "HgN/A
12:50 PM84 °FPassing clouds.10 mph40%30.09 "HgN/A
12:20 PM84 °FPassing clouds.12 mph45%30.12 "HgN/A
11:50 AM84 °FPassing clouds.12 mph43%30.12 "HgN/A
11:20 AM82 °FPassing clouds.12 mph45%30.12 "HgN/A
10:50 AM82 °FPassing clouds.10 mph42%30.12 "HgN/A
10:20 AM81 °FPassing clouds.12 mph51%30.12 "HgN/A
9:50 AM81 °FPassing clouds.12 mph54%30.12 "HgN/A
9:20 AM79 °FPassing clouds.10 mph58%30.12 "HgN/A
8:50 AM79 °FPassing clouds.10 mph61%30.12 "HgN/A
8:20 AM77 °FPassing clouds.10 mph69%30.12 "HgN/A
7:50 AM75 °FPassing clouds.10 mph74%30.12 "HgN/A
7:20 AM75 °FPassing clouds.8 mph74%30.12 "HgN/A
6:50 AM73 °FPassing clouds.9 mph78%30.12 "HgN/A
6:20 AM72 °FPassing clouds.9 mph83%30.12 "HgN/A
5:50 AM72 °FClear.8 mph83%30.12 "Hg10 mi
5:20 AM73 °FClear.7 mph74%30.12 "Hg10 mi
4:50 AM75 °FPassing clouds.7 mph74%30.12 "HgN/A
4:20 AM75 °FClear.8 mph74%30.12 "Hg10 mi
3:50 AM75 °FPassing clouds.9 mph74%30.12 "HgN/A
3:20 AM75 °FPassing clouds.10 mph74%30.12 "HgN/A
2:50 AM77 °FPassing clouds.13 mph69%30.12 "HgN/A
2:20 AM79 °FPassing clouds.10 mph70%30.12 "HgN/A
1:50 AM77 °FPassing clouds.12 mph74%30.12 "HgN/A
1:20 AM77 °FClear.12 mph74%30.12 "Hg10 mi
Weather by CustomWeather, © 2015

See weather overviewHow to use our weather pages